Showing default

WILDFIRE 2, 57767

Orbit data source: Space-Track

WILDFIRE 2, 57767 is a payload satellite owned by SDA (US) in LEO that was launched on Sat, 02 Sep 2023 UTC via an FALCON 9 launch vehicle from the Air Force Western Test Range (AFWTR). Payload-class satellites include a variety of spacecraft equipped with specific instruments for various scientific and technological missions. These include communications satellites like Starlink; space stations such as the ISS; scientific satellites like the Hubble; Earth observation satellites from companies like Planet Labs, Umbra, and HawkEye 360; GPS; miniature CubeSats for education and research; and military/defense satellites.

Loading next visibility...
Identifier
57767, 2023-133L
Orbit
LEO
Country
Flag of USUS
Related business
Manufacturer
TYVAK/LMSSD
Mission
Operational Defense Communications
Bus & Motor
MAVERICKS, Unknown motor
Mass
~300 kg wet, ~300 kg dry
Launch date (UTC)
2023-09-02 (3 years ago)
Launch vehicle
FALCON 9
Launch site
Air Force Western Test Range (AFWTR)
Object type
Payload
Rocket body
Debris
Shape & HBR
Box + 2 Pan, 1.3 m
Radar Cross Section
0.713 m², Large (>1 m²)

Expand to show TLE details & history
Last TLE update: 2 days ago

TLE from 2 days ago
0 WILDFIRE 2
1 57767U 23133L   26171.01174718  .00000074  00000-0  54934-4 0  9990
2 57767  80.9959   4.7181 0005601  22.7638 337.3765 13.85420379141399
Epoch: 2026-06-20T00:16Z
TLE epoch observation values (Epoch: 2026-06-20T00:16:54.956Z)
Latitude
-0.00008°
Longitude
92.25661°
Altitude
943.795 km
Speed
7.382 km/s
True Right ascension
00h 18m 52s
True Declination
0° 00' 00"
Sunlit
Object was in daylight at epoch
Visualization orbit readout
Latitude
Unknown
Longitude
Unknown
Altitude
Unknown
Speed
Unknown
Apparent Right ascension
Unknown
Apparent Declination
Unknown
Sunlit
N/A
Visualization observer readout
Local Sidereal Time
21:34:18
Azimuth
Unknown
Elevation
Unknown
Doppler factor
Unknown
Orbital elements
Apogee altitude
946.043 km
Perigee altitude
937.843 km
Semi-major axis
7,320.08 km
Eccentricity
0.00056
Inclination
80.9959°
RAAN
4.7181°
Arg. of periapsis
22.7638°
True anomaly
337.35179°
Mean anomaly
337.3765°
Eccentric anomaly
337.36415°
Mean motion
3.46553 °/min
Orbital period
103.88 mins
BSTAR
0.000054934
Loading maneuver chart data...
Computing Atmospheric mass density...
Loading historical data...
Loading historical data...
Loading historical data...
Loading historical data...
Loading historical data...
Loading historical data...
Loading historical data...

Documentation

Showing up to 5 results
|